Regional Weather Roundup
Issued by NWS

Home | Current Version | Previous Version | Text Only | Print | Product List | Glossary On
Versions: 1 2 3 4 5 6 7 8 9 10 11 12 13 14 15 16 17 18 19 20 21 22 23 24 25 26 27 28 29 30 31 32 33 34 35 36 37 38 39 40 41 42 43 44 45 46 47 48 49 50
000
ASUS42 KTBW 022210
RWRFL
FLORIDA REGIONAL WEATHER ROUNDUP
NATIONAL WEATHER SERVICE TAMPA BAY RUSKIN FL
500 PM EST MON MAR 02 2015

NOTE: "FAIR" INDICATES FEW OR NO CLOUDS BELOW 12,000 FEET WITH NO
SIGNIFICANT WEATHER AND/OR OBSTRUCTIONS TO VISIBILITY.


FLZ001>010-012>015-112-114-115-022300-
PANHANDLE FLORIDA

CITY           SKY/WX    TMP DP  RH WIND       PRES   REMARKS
PENSACOLA      CLOUDY    64  62  93 S5        30.23S FOG
PENSACOLA NAS  CLOUDY    65  62  90 SE5       30.23S
MILTON NAS     PTSUNNY   70  63  78 S8        30.23R
CRESTVIEW      CLOUDY    73  64  73 S5        30.24S
DUKE FIELD     PTSUNNY   72  63  72 S8        30.21F
VALPARAISO     CLOUDY    64  60  88 SW9       30.23S
MARY ESTHER    CLOUDY    64  59  86 S7        30.22F
TRI COUNTY     CLOUDY    68  60  75 CALM      30.24F
PANAMA CITY    FAIR      70  64  81 S6        30.22F
TYNDALL AFB    CLOUDY    66  62  87 SW5       30.23S
APALACHICOLA   PTSUNNY   70  62  76 SW6       30.23S

STATION/POSITION SKY/WX   TEMP    WIND        PRES    WAVE   SWELL
                          AIR SEA DIR/SP/G            HT/PER HT/PER
                          (F)     (DEG/KT/KT) (MB)    (FT/S) (FT/S)
30.1N   87.6W              64 64   90/  8/  8 1022.7F   2/ 5   2/ 5
29.2N   88.2W              71 72  150/  8/ 10 1023.5F   3/ 6   2/ 6
28.7N   86.0W              67 68  360/  4/  4 1024.0R   2/ 6   2/ 6
PANAMA CITY BEAC           62 60  170/  2/  3 1023.5F
CAPE SAN BLAS    NOT AVBL
TOWER C                    60     310/  4/  4 1024.0R
28.5N   84.5W              65 67   CALM  /  2 1023.6R   1/ 8   2/ 8

$$
FLZ011-016>038-118-127-128-134-139-239-022300-
NORTH FLORIDA

CITY           SKY/WX    TMP DP  RH WIND       PRES   REMARKS
MARIANNA       CLOUDY    70  63  78 NE5       30.23F
TALLAHASSEE    CLOUDY    76  61  59 N3        30.22S
PERRY          CLOUDY    74  66  76 SW7       30.23S
CROSS CITY       N/A     80  67  64 SW10      30.20S
LAKE CITY      PTSUNNY   79  63  57 N3        30.20S
GAINESVILLE    SUNNY     80  62  54 W3        30.20F
MAYPORT NAS    PTSUNNY   58  54  86 NE5       30.23F FOG
JACKSONVILLE   PTSUNNY   73  64  73 E6        30.21S
JAX NAS        PTSUNNY   75  60  59 E8        30.21S
JAX CRAIG      MOSUNNY   65  57  75 NE6       30.22F
JAX CECIL      MOSUNNY   81  64  57 N6        30.20F
FERNANDINA BEA FAIR      63  57  82 E3        30.22S
ST AUGUSTINE   FOG       59  57  94 NE7       30.24F VSB 1/2

STATION/POSITION SKY/WX   TEMP    WIND        PRES    WAVE   SWELL
                          AIR SEA DIR/SP/G            HT/PER HT/PER
                          (F)     (DEG/KT/KT) (MB)    (FT/S) (FT/S)
SHELL POINT      NOT AVBL
KEATON BEACH               61     300/  5/  6 1023.8F
CEDAR KEY                  70     260/  4/  5 1023.6F
FERNANDINA                 61 54  140/  4/  7 1023.0S
30.7N   81.3W                 54                N/A     3/ 8
MAYPORT                    56 57   90/  5/  7 1023.6F
31.4N   80.9W              56 56  170/  6/  6 1023.3F   3/ 9   3/ 9
ST AUGUSTINE               57      30/  5/  6 1024.1S

$$
FLZ040-043>046-052-053-057-058-063-144-022300-
INTERIOR CENTRAL FLORIDA

CITY           SKY/WX    TMP DP  RH WIND       PRES   REMARKS
OCALA          MOSUNNY   82  63  51 E3        30.20F
THE VILLAGES     N/A     82  63  51 E8        30.10F
LEESBURG       SUNNY     80  63  55 CALM      30.21F
SANFORD        SUNNY     80  63  55 NE3       30.20F
ORLANDO EXEC   PTSUNNY   81  63  54 NW3       30.20F
ORLANDO INTL   PTSUNNY   79  68  69 NE10      30.20F
KISSIMMEE      MOSUNNY   81  66  61 VRB5      30.21S
WINTER HAVEN   SUNNY     82  62  50 E5        30.21F
LAKELAND       MOSUNNY   82  64  54 E7        30.20F
BARTOW         MOSUNNY   81  63  54 E7        30.21F
OKEECHOBEE     MOSUNNY   81  63  54 E7        30.19S

$$
FLZ041-047-054-059-064-141-147-022300-
EAST CENTRAL FLORIDA

CITY           SKY/WX    TMP DP  RH WIND       PRES   REMARKS
ORMOND BEACH   SUNNY     77  64  65 E6        30.21S
DAYTONA BEACH  MOSUNNY   77  65  66 E7        30.22S
DELAND           N/A    N/A N/A N/A CALM      30.22R
NEW SMYRNA BEA MOSUNNY   73  64  73 E8        30.23S
JFK SPACE CTR  SUNNY     73  66  76 E5        30.22S
CAPE CANAVERAL SUNNY     70  65  82 NE7       30.21F
PATRICK AFB    SUNNY     67  65  92 NE14      30.22S
MELBOURNE      SUNNY     71  65  81 NE9       30.22S
VERO BEACH     SUNNY     76  66  71 E8        30.21S
FT PIERCE      SUNNY     75  67  76 NE7       30.21S

STATION/POSITION SKY/WX   TEMP    WIND        PRES    WAVE   SWELL
                          AIR SEA DIR/SP/G            HT/PER HT/PER
                          (F)     (DEG/KT/KT) (MB)    (FT/S) (FT/S)
28.5N   80.2W              69 71  350/  8/ 10 1023.5F
28.9N   78.5W              74 76  310/  2/  4 1023.5F   4/ 9   5/ 9
TRIDENT PIER               73 65   40/  7/  9 1023.9S
28.4N   80.5W                 65                N/A     3/ 9
27.6N   80.2W                 72                N/A     4/ 9   2/11

$$
FLZ050-056-061-142-242-148-248-149-249-151-251-155-255-
160-260-022300-
WEST CENTRAL FLORIDA

CITY           SKY/WX    TMP DP  RH WIND       PRES   REMARKS
CRYSTAL RIVER  FAIR      77  64  65 W6        30.20S
INVERNESS      FAIR      82  59  44 NE5       30.20F
BROOKSVILLE    SUNNY     82  66  58 NW7       30.20F
ZEPHYRHILLS    FAIR      81  61  50 CALM      30.20F
CLEARWATER     SUNNY     78  67  68 NW10      30.19F
TAMPA INTL     MOSUNNY   79  66  64 W9        30.19F
TAMPA EXEC     SUNNY     82  64  54 CALM      30.19F
PLANT CITY     MOSUNNY  N/A N/A N/A CALM      30.21F
MACDILL AFB    MOSUNNY   81  70  69 NW8       30.19F
PETER O KNIGHT PTSUNNY   82  68  61 W5        30.19S
ST PETERSBURG  SUNNY     79  64  60 NW7       30.17F
SARASOTA       SUNNY     75  67  76 W12       30.18S
VENICE         FAIR      75  68  78 NW10      30.19F

STATION/POSITION SKY/WX   TEMP    WIND        PRES    WAVE   SWELL
                          AIR SEA DIR/SP/G            HT/PER HT/PER
                          (F)     (DEG/KT/KT) (MB)    (FT/S) (FT/S)
CEDAR KEY                  70     260/  4/  5 1023.6F
28.5N   84.5W              65 67   CALM  /  2 1023.6R   1/ 8   2/ 8
27.3N   84.3W                 72                N/A     2/ 4
CLEARWATER BEACH NOT AVBL
MIDDLE TAMPA BAY           71     310/ 11/ 12 1022.7F
VENICE                     71 68  310/  9/  9 1021.7F

$$
FLZ066-069-070-075>078-162-262-165-265-022300-
SOUTHWEST FLORIDA AND KEYS

CITY           SKY/WX    TMP DP  RH WIND       PRES   REMARKS
PUNTA GORDA    SUNNY     83  63  50 NE6       30.19S
FT MYERS       PTSUNNY   83  61  47 NE10      30.15S
SOUTHWEST INTL PTSUNNY   84  60  44 E8        30.16S
NAPLES         SUNNY     77  68  73 W10       30.17R
MARCO ISLAND   PTCLDY    81  64  57 NW8       30.16S
IMMOKALEE      PTCLDY   N/A N/A N/A NE9       30.17S
MARATHON       MOSUNNY   78  68  71 E9        30.16S
KEY WEST NAS   MOSUNNY   78  68  71 E14       30.15F
KEY WEST INTL  SUNNY     78  69  73 E13       30.15F

STATION/POSITION SKY/WX   TEMP    WIND        PRES    WAVE   SWELL
                          AIR SEA DIR/SP/G            HT/PER HT/PER
                          (F)     (DEG/KT/KT) (MB)    (FT/S) (FT/S)
VENICE                     71 68  310/  9/  9 1021.7F
NAPLES                     71 69  310/  7/  9 1021.4S
26.0N   85.6W              74 78   60/ 10/ 12 1021.7F   3/ 4   2/ 5
DRY TORTUGAS               73      70/ 11/ 11 1021.0F
SAND KEY                   76      90/ 18/ 22 1020.9F
SOMBRERO KEY               76      70/ 12/ 12 1021.8R
LONG KEY                   76 79   70/  8/ 12 1022.1F
MOLASSES REEF              75 77   70/ 11/ 13 1021.4R

$$
FLZ067-068-071>074-168-172>174-022300-
SOUTHEAST FLORIDA

CITY           SKY/WX    TMP DP  RH WIND       PRES   REMARKS
W PALM BEACH   MOSUNNY   79  66  64 NE8       30.19R
FT LAUDER-EXEC SUNNY     79  63  57 E13       30.18S
FT LAUDERDALE  MOSUNNY   76  66  71 NE12      30.18S
POMPANO BEACH  SUNNY     78  65  63 E9        30.19S
PEMBROKE PINES SUNNY     79  63  57 E13       30.20R
OPA LOCKA      SUNNY     80  62  54 NE13      30.19R
MIAMI          MOSUNNY   79  62  56 E13       30.18S
WEST KENDALL   SUNNY     79  61  53 E13       30.18R
HOMESTEAD      SUNNY     78  66  66 NE10      30.17S

STATION/POSITION SKY/WX   TEMP    WIND        PRES    WAVE   SWELL
                          AIR SEA DIR/SP/G            HT/PER HT/PER
                          (F)     (DEG/KT/KT) (MB)    (FT/S) (FT/S)
PORT EVERGLADES            76      60/  8/  9 1022.0
VIRGINIA KEY               76 77   60/ 10/ 13 1021.5R
LAKE WORTH                 75 76   60/  8/  9 1022.1S
SETTLEMENT POINT           73      30/ 13/ 14 1023.3R

$$



USA.gov is the U.S. government's official web portal to all federal, state and local government web resources and services.